{"data":{"norad_id":41029,"intl_designator":"2015-065B","name":"BADR-7 (ARABSAT-6B)","alt_names":[],"object_type":"PAYLOAD","status":"ACTIVE","operator":null,"country":"AB","launch_date":"2015-11-10","launch_site_code":"FRGUI","launch_vehicle":null,"mission":null,"orbit_class":"UNKNOWN","rcs_meters":78.9705,"size_class":null,"mass_kg":null,"dimensions":null,"purposes":["comms"],"wikipedia_slug":null,"has_3d_model":false,"image_url":null,"decayed_at":null,"tle_current":{"epoch":"2026-09-20T01:38:53.895840Z","epoch_age_seconds":59319,"freshness":"FRESH","line1":"1 41029U 15065B   26263.06867935  .00000141  00000+0  00000+0 0  9990","line2":"2 41029   0.0229 206.0167 0006501  14.2504 189.4319  1.00274329 39714","mean_motion":1.00274329,"eccentricity":0.0006501,"inclination_deg":0.0229,"raan_deg":206.0167,"arg_perigee_deg":14.2504,"mean_anomaly_deg":189.4319,"bstar":0,"rev_number":3971,"period_min":1436.0604696741,"perigee_km":35758.470972096,"apogee_km":35813.292629341,"semimajor_km":42164.018800719,"source":"CELESTRAK","updated_at":"2026-09-20T09:00:35.221231Z"}}}